National Weather Service United States Department of Commerce

Flooding Continues On Area Rivers

Flooding continues on a number of rivers in northern Michigan due to snow melt and recent heavy rains, especially south of M-72. In particular, flooding is occurring on the Rifle and Tobacco Rivers. Read More >

Observations from across/near northern Michigan

Marine Observations

Michigan Hourly Observations

 

Yesterday's high, low and precipitation reports from across northern Michigan

Northern Michigan Temperatures and Precipitation

 

Observation Text Products


000
SXUS83 KAPX 221226
OMRAPX

Marine Observations
National Weather Service Gaylord MI
726 AM EST Thu Feb 22 2018

WIND DATA (KTS) WAVES
SITE DATE/TIME DIR SPEED GUST (FT) SITE NAME
--------------------------------------------------

Lake Superior/St Marys River

GRMM4 221140Z 160 3 4 Grand Marais
WFPM4 221140Z 190 3 4 Whitefish Point
PTIM4 221200Z 140 3 4 Point Iroquois
CYAM 221200Z 60 2 SOO (Canada)
KANJ 221155Z 70 4 Sault Ste Marie
SWPM4 221200Z 100 2 4 S.W. Pier
LTRM4 221200Z 100 1 2 Little Rapids
RCKM4 221200Z 340 2 3 Rock Cut
WNEM4 221200Z 320 2 West Nebish Island

Lake Huron

DTLM4 221200Z 60 3 4 DeTour Village
KDRM 221215Z CALM Drummond Island
KMCD 221215Z 110 4 Mackinac Island
MACM4 221200Z CALM Mackinac City
KSLH 221215Z CALM Cheboygan Airport
CYGM4 221155Z CALM Cheboygan Marina
SRLM4 221130Z 80 8 Spectacle Reef Light
KPZQ 221215Z CALM Rogers City
PRIM4 221155Z 090 7 11 Presque Isle Light
KAPN 221154Z CALM Alpena Guard Base
APNM4 221210Z 80 6 8 Alpena Harbor Light
TBIM4 221150Z 70 10 12 Thunder Bay Island
SPTM4 221155Z 340 2 8 Sturgeon Point Light
KOSC 221215Z CALM Oscoda
TAWM4 221140Z 360 3 5 Tawas Point
GSLM4 221206Z 60 13 16 Gravelly Shoals
KP58 221151Z 100 14 Port Hope

Lake Michigan

KISQ 221215Z CALM Manistique
PNLM4 221200Z 50 4 5 Port Inland
NABM4 221200Z 20 2 4 Naubinway
KSJX 221215Z CALM St James
KPLN 221154Z CALM Pellston
KMGN 221215Z CALM Harbor Springs
KCVX 221215Z CALM Charlevoix
GTLM4 221140Z 120 2 4 Grand Traverse Light
KTVC 221153Z CALM Traverse City
KFKS 221215Z CALM Frankfort
MEEM4 221140Z 90 4 6 Manistee Harbor
BSBM4 221140Z 50 3 4 Big Sable Point
LDTM4 221200Z 70 3 5 Ludington
KLDM 221215Z CALM Ludington Airport


000
ASUS43 KDTX 221210
RWRMI
MICHIGAN HOURLY REGIONAL WEATHER ROUNDUP
NATIONAL WEATHER SERVICE DETROIT/PONTIAC MI
700 AM EST THU FEB 22 2018

NOTE: "FAIR" INDICATES FEW OR NO CLOUDS BELOW 12,000 FEET WITH NO
SIGNIFICANT WEATHER AND/OR OBSTRUCTION TO VISIBILITY.

MIZ047>049-052>055-059>063-066>070-074>076-081>083-221300-
SOUTHEAST LOWER MICHIGAN

CITY SKY/WX TMP DP RH WIND PRES REMARKS
ADRIAN CLOUDY 30 25 81 E12 30.55S WCI 20
6HR MIN TEMP: 30; 6HR MAX TEMP: 32;

ALMA CLOUDY 29 28 93 NE8 30.62R WCI 21
6HR MIN TEMP: 28; 6HR MAX TEMP: 30;

ANN ARBOR MOCLDY 29 25 85 NE8 30.55F WCI 21
BAD AXE CLOUDY 28 23 83 E8 30.64S WCI 20
6HR MIN TEMP: 25; 6HR MAX TEMP: 28;

CARO MOCLDY 28 24 82 E6 30.63R WCI 22
DETROIT CITY CLOUDY 29 22 75 NE8 30.59S WCI 21
6HR MIN TEMP: 29; 6HR MAX TEMP: 30;

DETROIT CLOUDY 31 23 72 NE10 30.58S WCI 22
6HR MIN TEMP: 31; 6HR MAX TEMP: 32;

FLINT MOCLDY 28 24 85 E12 30.60S WCI 18
6HR MIN TEMP: 28; 6HR MAX TEMP: 30;

GROSSE ILE CLOUDY 31 25 80 NE13 30.57S WCI 21
6HR MIN TEMP: 30; 6HR MAX TEMP: 31;

HILLSDALE CLOUDY 30 27 86 E10 30.51R WCI 21
HOWELL FAIR 29 26 89 E8 30.56F WCI 21
6HR MIN TEMP: 29; 6HR MAX TEMP: 31;


CITY SKY/WX TMP DP RH WIND PRES REMARKS
JACKSON FAIR 30 26 85 NE8 30.55R WCI 22
6HR MIN TEMP: 30; 6HR MAX TEMP: 32;

LAMBERTVILLE CLOUDY 31 26 83 NE10G16 30.54F WCI 22
6HR MIN TEMP: 31; 6HR MAX TEMP: 32;

LANSING FAIR 30 26 85 E8 30.60R WCI 22
6HR MIN TEMP: 29; 6HR MAX TEMP: 30;

LAPEER CLOUDY 28 24 83 E8 30.61S WCI 20
6HR MIN TEMP: 28; 6HR MAX TEMP: 29;

MASON FAIR 31 26 80 NE6 30.57R WCI 25
6HR MIN TEMP: 31; 6HR MAX TEMP: 33;

MONROE CLOUDY 31 24 75 NE7 30.56S WCI 24
6HR MIN TEMP: 31; 6HR MAX TEMP: 32;

MT. CLEMENS CLOUDY 29 27 91 NE10 30.59S WCI 20
6HR MIN TEMP: 29; 6HR MAX TEMP: 29;

PONTIAC CLOUDY 27 23 85 NE10 30.56S WCI 17
6HR MIN TEMP: 27; 6HR MAX TEMP: 29;

PORT HOPE N/A 29 23 78 E16 30.63S WCI 17
6HR MIN TEMP: 29; 6HR MAX TEMP: 30;

PORT HURON FAIR 28 21 74 NE9 30.61S WCI 20
TRI CITIES CLOUDY 29 24 82 NE9 30.64R WCI 20
6HR MIN TEMP: 29; 6HR MAX TEMP: 30;

MIDLAND MOCLDY 29 24 83 NE7 30.64R WCI 22
6HR MIN TEMP: 28; 6HR MAX TEMP: 29;

TROY FAIR 30 24 79 NE7 30.60F WCI 23
SAGINAW HB CLOUDY 30 27 86 E12 30.63R WCI 21
$$
MIZ043>046-050>051-056>058-064>065-071>073-077>080-221300-
SOUTHWEST LOWER MICHIGAN

CITY SKY/WX TMP DP RH WIND PRES REMARKS
BATTLE CREEK FAIR 31 27 85 NE8 30.55R WCI 23
6HR MIN TEMP: 31; 6HR MAX TEMP: 32;

BENTON HARBOR FAIR 31 25 78 NE3 30.54F
6HR MIN TEMP: 29; 6HR MAX TEMP: 31;

BIG RAPIDS CLOUDY 26 22 84 E6 30.60R WCI 19
6HR MIN TEMP: 23; 6HR MAX TEMP: 26;

COLDWATER FAIR 32 29 89 NE7 30.53R WCI 26
6HR MIN TEMP: 32; 6HR MAX TEMP: 33;

FREMONT FAIR 27 19 72 E6 30.60R WCI 20
6HR MIN TEMP: 23; 6HR MAX TEMP: 27;

HOLLAND FAIR 31 23 72 E8 30.56F WCI 23
6HR MIN TEMP: 28; 6HR MAX TEMP: 31;

GRAND RAPIDS CLOUDY 30 24 78 E8 30.56S WCI 22
6HR MIN TEMP: 28; 6HR MAX TEMP: 30;

IONIA MOCLDY 30 28 90 E9 30.58R WCI 22
6HR MIN TEMP: 30; 6HR MAX TEMP: 30;

KALAMAZOO FAIR 32 27 81 E7 30.52F WCI 26
6HR MIN TEMP: 32; 6HR MAX TEMP: 32;

LUDINGTON CLOUDY 25 21 85 NE3 30.62R
6HR MIN TEMP: 22; 6HR MAX TEMP: 25;

MARSHALL FAIR 31 28 89 NE5 30.55R WCI 26
6HR MIN TEMP: 31; 6HR MAX TEMP: 32;

MOUNT PLEASANT CLOUDY 29 25 84 E6 30.61S WCI 23
6HR MIN TEMP: 28; 6HR MAX TEMP: 29;

MUSKEGON MOCLDY 28 20 71 NE6 30.60R WCI 22
6HR MIN TEMP: 25; 6HR MAX TEMP: 28;

SOUTH HAVEN FAIR 31 26 82 NE7 30.54F WCI 24
$$
MIZ016>042-221300-
NORTHERN LOWER MICHIGAN

CITY SKY/WX TMP DP RH WIND PRES REMARKS
ALPENA MOCLDY 20 18 92 CALM 30.66F
6HR MIN TEMP: 18; 6HR MAX TEMP: 21;

BEAVER ISLAND FAIR 14 12 92 CALM 30.67R
6HR MIN TEMP: 14; 6HR MAX TEMP: 15;

BELLAIRE FAIR 20 19 98 CALM 30.66R
6HR MIN TEMP: 18; 6HR MAX TEMP: 20;

CADILLAC CLOUDY 22 21 93 E5 30.57R WCI 16
CHARLEVOIX FAIR 19 18 93 CALM 30.69R
6HR MIN TEMP: 19; 6HR MAX TEMP: 19;

FRANKFORT CLOUDY 25 17 72 CALM 30.65R
GAYLORD FAIR 19 17 92 CALM 30.59S
6HR MIN TEMP: 18; 6HR MAX TEMP: 19;

GRAYLING CLOUDY 20 18 90 E6 30.61R WCI 13
6HR MIN TEMP: 17; 6HR MAX TEMP: 20;

HARBOR SPRINGS FAIR 16 14 92 NE3 30.65R
HOUGHTON LAKE CLOUDY 23 19 85 E6 30.61R WCI 16
6HR MIN TEMP: 20; 6HR MAX TEMP: 23;

MANISTEE CLOUDY 23 19 85 E3 30.64R
OSCODA FAIR 24 19 80 CALM 30.65S
6HR MIN TEMP: 22; 6HR MAX TEMP: 24;

PELLSTON FAIR 13 10 88 CALM 30.66S
6HR MIN TEMP: 11; 6HR MAX TEMP: 15;

ROGERS CITY CLOUDY 19 17 91 CALM 30.67S
TRAVERSE CITY CLOUDY 24 18 77 CALM 30.64R
6HR MIN TEMP: 22; 6HR MAX TEMP: 24;

$$
MIZ007>008-015-221300-
EASTERN UPPER MICHIGAN

CITY SKY/WX TMP DP RH WIND PRES REMARKS
KINROSS FAIR 9 7 92 SE7 30.66S WCI -2
6HR MIN TEMP: 7; 6HR MAX TEMP: 11;

MACKINAC ISLAN FAIR 18 15 89 E6 30.66R WCI 10
6HR MIN TEMP: 15; 6HR MAX TEMP: 20;

NEWBERRY FAIR 6 6 97 SW5 30.65R WCI -2
6HR MIN TEMP: 1; 6HR MAX TEMP: 10;

S. S. MARIE FAIR 7 3 84 E5 30.67R WCI -2
6HR MIN TEMP: 7; 6HR MAX TEMP: 13;

MUNISING N/A 1 -1 91 S8 30.67R WCI -13
6HR MIN TEMP: 1; 6HR MAX TEMP: 8;

$$
MIZ004>006-011>014-085-221300-
CENTRAL UPPER MICHIGAN

CITY SKY/WX TMP DP RH WIND PRES REMARKS
MANISTIQUE FAIR 6 4 94 CALM 30.66R
6HR MIN TEMP: 5; 6HR MAX TEMP: 10;

ESCANABA FAIR 5 2 87 CALM 30.68R
6HR MIN TEMP: 4; 6HR MAX TEMP: 13;

MENOMINEE FAIR 17 11 77 NW3 30.68R
6HR MIN TEMP: 15; 6HR MAX TEMP: 17;

SAWYER-GWINN CLEAR -2 -6 84 CALM 30.63R
$$
MIZ001>003-009>011-084-221300-
WESTERN UPPER MICHIGAN

CITY SKY/WX TMP DP RH WIND PRES REMARKS
IRON MOUNTAIN FAIR 6 2 83 N3 30.63R
6HR MIN TEMP: 2; 6HR MAX TEMP: 7;

HOUGHTON FAIR 6 0 76 SW3 30.61R
6HR MIN TEMP: -2; 6HR MAX TEMP: 14;

COPPER HARBOR N/A 11 5 77 W8 30.64R WCI -1
6HR MIN TEMP: 8; 6HR MAX TEMP: 16;

IRONWOOD FAIR -10 -14 82 CALM 30.61S
6HR MIN TEMP: -10; 6HR MAX TEMP: 7;

$$

ABBREVIATIONS USED IN REMARKS
TC - TEMPERATURE IN CELSIUS
WCI - WIND CHILL INDEX
HX - HEAT INDEX
VSB - VISIBILITY




000
ASUS63 KAPX 220039
RTPAPX


Eastern Upper/Northern Lower Michigan Temperature and Precip Summary
National Weather Service Gaylord MI
739 PM EST Wed Feb 21 2018

18 hour High/Low Temperature ending 7 pm EST
24 hour Precipitation/Snowfall ending 7 pm EST
Snow Depth Observed at 7 pm EST

.BR APX 0221 ES DH19/TAIRZS/TAIRZI/PPDRZZ/SFDRZZ/SDIRZZ
:..................................................................
: MAX MIN 24 HR SNOW SNOW
:ID LOCATION TEMP TEMP PRECIP FALL DEPTH
:..................................................................
ANJ : Sault Ste Marie : 28 / 18 / T / T / 17
APN : Alpena : 35 / 23 / 0.06 / T / T
HTL : Houghton Lake : 34 / 25 / 0.05 / T / T
PLN : Pellston : 30 / 21 / T / /
TVC : Traverse City : 34 / 26 / T / /
GLR : Gaylord : 32 / 21 / T / /
.END

Cooperative Observations
Temperature/Precipitation/Snowfall values are for 24 hour period
ending 7 pm EST. Snow Depth is observed at 7 pm EST.
...................................................................
OBS MAX MIN SNOW SNOW
ID LOCATION TIME TEMP TEMP PCPN FALL DEPTH
...................................................................
ONAM4: Onaway 4N :DH1800/ 39 / 21 / 0.00 / 0.0 / 1.0

These data are preliminary and have not undergone final quality
control by the National Centers for Environmental Information.
Therefore...these data are subject to revision. Final
and certified climate data can be accessed at www.ncdc.noaa.gov.

&&

The following are supplemental temperature and precipitation data.
This includes data which are received from non-National Weather
Service maintained observing systems...as well as reports from
public weather spotters. Data is only partially quality controlled
and is not suitable for official climatological records.

.BR APX 0221 ES DH19/TAIRZS/TAIRZI
:
:Automated Temperature Data--18 hr High/Low ending 7 pm EST
:..................................................................
: MAX MIN
:ID LOCATION TEMP TEMP
:..................................................................
:
ERY : Newberry : 25 / 17
CIU : Kinross : 28 / 16
MCD : Mackinac Island : 30 / 19
DRM : Drummond Island : 30 / 19
SJX : Beaver Island : 30 / 22
SLH : Cheboygan : 31 / 21
PZQ : Rogers City : 33 / 23
CVX : Charlevoix : 33 / 24
MGN : Harbor Springs : 32 / 20
ACB : Bellaire : 34 / 24
FKS : Frankfort : 33 / 23
GOV : Grayling AAF : M / M
MBL : Manistee : 33 / 22
CAD : Cadillac : 33 / 23
Y31 : West Branch : 40 / 27
OSC : Oscoda : 43 / 27
LDM : Ludington : 32 / 23
RQB : Big Rapids : 35 / 28
MOP : Mount Pleasant : 40 / 32
IKW : Midland : 43 / 31
.END

U.S. Forest Service Remote Automated Weather Stations (RAWS)
Data is only partially quality controlled
18 hour High/Low Temperature ending 7 pm EST
Minimum Relative Humidity over past 18 hours
12/24 hour Precipitation ending 7 pm EST
...................................................................
MAX MIN MIN 12 HR 24 HR
ID LOCATION TEMP TEMP RH PRECIP PRECIP
...................................................................
AGRM4: Alger RAWS : 38 / 27 / 53 / 0.00 / 0.00
ATAM4: Atlanta RAWS : 33 / 23 / 59 / 0.00 / 0.00
BCYM4: Barton City RAWS : 36 / 27 / 54 / 0.00 / 0.00
GYGM4: Grayling RAWS : 33 / 22 / 53 / 0.00 / 0.00
INDM4: Indian River RAWS : 31 / 17 / 57 / 0.00 / 0.00
MMOM4: Mio RAWS : 35 / 26 / 56 / 0.00 / 0.09
MTNM4: Manton RAWS : M / M / M / M / M
NMIM4: N Manitou Island : 30 / 19 / 63 / 0.00 / 0.01
RACM4: Raco RAWS : 25 / 17 / 72 / 0.00 / 0.00
REXM4: Rexton RAWS : 31 / 18 / 47 / 0.00 / 0.00
RSCM4: Roscommon RAWS : 33 / 22 / M / 0.00 / 0.00
RYDM4: Rudyard RAWS : 26 / 19 / 66 / 0.00 / 0.00
SBDM4: The Bear RAWS : 30 / 21 / 67 / 0.00 / 0.00
SCKM4: Silver Creek RAWS : 41 / 27 / 55 / 0.00 / 0.26
WLLM4: Wellston RAWS : 31 / 24 / 54 / 0.00 / 0.00

The following are preicpitation reports received by the National
Weather Service in Gaylord...valid for the time period ending
around 7 pm EST. All reports have been recorded in inches.

Spotter reports from Eastern Upper and Northern Lower Michigan:

WATER TIME SNOW
LOCATION RAIN SNOW EQUIV PERIOD DEPTH
None available





$$